Tracking 19212 objects as of 16-Jul-2018
HD Live streaming from Space Station
objects crossing your sky now

MORELOS 2

Track MORELOS 2 now!
MORELOS 2 is classified as:


NORAD ID: 16274
Int'l Code: 1985-109B
Perigee: 35,980.3 km
Apogee: 36,009.3 km
Inclination: 14.4 °
Period: 1,446.4 minutes
Semi major axis: 42365 km
RCS: 7.6304 m2 (large)
Launch date: November 27, 1985
Source: Mexico (MEX)
Launch site: AIR FORCE EASTERN TEST RANGE (AFETR)
aabbcc
Your satellite tracking list
Your tracking list is empty




NASA's NSSDC Master Catalog

Two Line Element Set (TLE):
1 16274U 85109B   18196.50111727 -.00000056  00000-0  00000+0 0  9993
2 16274  14.3629  20.3404 0003420  43.7988 131.6788  0.99558763108496
Source of the keplerian elements: AFSPC